EW0205 Weather Reports


Display with metric or nautical units.
time (UTC)temp
F
wind
direction
speed
MPH
gust
MPH
rain 1hr
in
rain 24hr
in
rain mn
in
humidity
%
barometer
mb
20260504044551 47 215 2.0 8.0 0.00 0.01 0.00 60 1005.0
20260504043108 47 232 5.0 9.0 0.00 0.01 0.00 58 1005.1
20260504041542 47 231 3.0 7.0 0.00 0.01 0.00 57 1005.3
20260504040042 47 246 2.0 8.0 0.00 0.01 0.00 57 1005.2
20260504034546 46 238 4.0 7.0 0.00 0.01 0.01 56 1005.2
20260504033036 46 207 2.0 7.0 0.00 0.01 0.01 56 1005.2
20260504031547 46 200 1.0 5.0 0.00 0.01 0.01 56 1005.3
20260504030042 45 360 3.0 8.0 0.00 0.01 0.01 57 1005.4
20260504024535 45 194 1.0 4.0 0.00 0.01 0.01 58 1005.5
20260504023032 45 204 0.0 0.0 0.00 0.01 0.01 59 1005.6
20260504021540 46 204 1.0 3.0 0.00 0.01 0.01 57 1005.8
20260504020037 47 205 1.0 2.0 0.00 0.01 0.01 53 1005.8
20260504014530 47 205 1.0 2.0 0.00 0.01 0.01 52 1005.9
20260504013035 48 202 0.0 4.0 0.00 0.01 0.01 51 1006.0
20260504011530 48 212 1.0 5.0 0.00 0.01 0.01 51 1006.0
20260504010030 47 198 1.0 3.0 0.00 0.01 0.01 54 1006.1
20260504004540 48 211 0.0 0.0 0.00 0.01 0.01 53 1005.9
20260504003029 49 211 0.0 0.0 0.00 0.01 0.01 49 1005.7
20260504001534 50 213 0.0 1.0 0.00 0.01 0.01 48 1005.6
20260504000028 51 223 3.0 5.0 0.00 0.01 0.01 47 1005.6
20260503234529 51 227 3.0 7.0 0.00 0.01 0.01 46 1005.6
20260503233026 52 227 3.0 9.0 0.00 0.01 0.01 45 1005.7
20260503231526 52 241 4.0 10.0 0.00 0.01 0.01 43 1005.6
20260503230036 53 254 4.0 14.0 0.00 0.01 0.01 43 1005.5
20260503224525 53 253 6.0 14.0 0.00 0.01 0.01 42 1005.5
20260503223025 53 236 2.0 10.0 0.00 0.01 0.01 44 1005.5
20260503221526 54 265 6.0 12.0 0.00 0.01 0.01 42 1005.6
20260503220032 54 201 8.0 17.0 0.00 0.01 0.01 43 1005.6
20260503214532 54 253 6.0 17.0 0.00 0.01 0.01 44 1005.6
20260503213030 53 360 7.0 12.0 0.00 0.01 0.01 43 1005.5
20260503211521 53 265 12.0 18.0 0.00 0.01 0.01 42 1005.6
20260503210021 54 302 6.0 16.0 0.00 0.01 0.01 43 1005.5
20260503204525 53 360 9.0 21.0 0.00 0.01 0.01 42 1005.6
20260503203016 53 360 8.0 16.0 0.00 0.01 0.01 45 1005.7
20260503201515 52 360 7.0 19.0 0.00 0.01 0.01 42 1005.7
20260503200012 52 360 9.0 20.0 0.00 0.01 0.01 47 1006.0
20260503194509 52 248 10.0 16.0 0.00 0.01 0.01 46 1006.1
20260503193008 52 234 7.0 15.0 0.00 0.01 0.01 47 1006.4
20260503191504 51 360 8.0 14.0 0.00 0.01 0.01 48 1006.5
20260503190006 51 360 6.0 13.0 0.00 0.01 0.01 49 1006.7
20260503184600 51 275 6.0 10.0 0.00 0.08 0.01 52 1006.8
20260503183104 49 360 6.0 15.0 0.00 0.08 0.01 52 1007.1
20260503181607 49 360 6.0 12.0 0.00 0.08 0.01 52 1007.1
20260503180055 50 281 2.0 10.0 0.00 0.08 0.01 54 1007.1
20260503174601 49 360 7.0 12.0 0.00 0.09 0.01 54 1007.4
20260503173052 49 360 4.0 13.0 0.00 0.09 0.01 60 1007.4
20260503171550 48 292 6.0 15.0 0.00 0.09 0.01 55 1007.6
20260503081511 40 271 4.0 7.0 0.00 0.17 0.00 90 1009.9
20260503071501 41 249 4.0 8.0 0.00 0.17 0.00 88 1009.8